Date,TemperatureHighF,TemperatureAvgF,TemperatureLowF,DewpointHighF,DewpointAvgF,DewpointLowF,HumidityHigh,HumidityAvg,HumidityLow,PressureMaxIn,PressureMinIn,WindSpeedMaxMPH,WindSpeedAvgMPH,GustSpeedMaxMPH,PrecipitationSumIn
2014-1-1,60.0,51.5,43.0,-99.9,-99.9,-99.9,0,0,100,0.00,40.00,0,-999,0,0.00
2014-1-2,58.0,47.9,40.0,-99.9,-99.9,-99.9,0,0,100,0.00,40.00,0,-999,0,0.00
2014-1-3,49.0,44.2,34.0,-99.9,-99.9,-99.9,0,0,100,0.00,40.00,0,-999,0,0.00
2014-1-4,59.0,43.8,31.0,-99.9,-99.9,-99.9,0,0,100,0.00,40.00,0,-999,0,0.00
2014-1-5,62.0,47.1,36.0,-99.9,-99.9,-99.9,0,0,100,0.00,40.00,0,-999,0,0.00
2014-1-6,36.0,30.2,25.0,-99.9,-99.9,-99.9,0,0,100,0.00,40.00,0,-999,0,0.00
2014-1-7,36.0,27.8,15.0,-99.9,-99.9,-99.9,0,0,100,0.00,40.00,0,-999,0,0.00
2014-1-8,44.0,42.6,41.0,-99.9,-99.9,-99.9,0,0,100,0.00,40.00,0,-999,0,0.00
2014-1-9,62.0,50.7,43.0,-99.9,-99.9,-99.9,0,0,100,0.00,40.00,0,-999,0,0.00
2014-1-10,67.0,59.9,51.0,-99.9,-99.9,-99.9,0,0,100,0.00,40.00,0,-999,0,0.00
2014-1-11,66.0,60.0,47.0,-99.9,-99.9,-99.9,0,0,100,0.00,40.00,0,-999,0,0.00
2014-1-12,66.0,50.0,38.0,-99.9,-99.9,-99.9,0,0,100,0.00,40.00,0,-999,0,0.00
2014-1-13,73.0,57.8,48.0,-99.9,-99.9,-99.9,0,0,100,0.00,40.00,0,-999,0,0.00
2014-1-14,63.0,48.9,40.0,-99.9,-99.9,-99.9,0,0,100,0.00,40.00,0,-999,0,0.00
2014-1-15,54.0,47.8,42.0,-99.9,-99.9,-99.9,0,0,100,0.00,40.00,0,-999,0,0.00
2014-1-16,72.0,55.8,29.0,-99.9,-99.9,-99.9,0,0,100,0.00,40.00,0,-999,0,0.00
2014-1-17,57.0,49.7,40.0,-99.9,-99.9,-99.9,0,0,100,0.00,40.00,0,-999,0,0.00
2014-1-18,58.0,53.7,47.0,-99.9,-99.9,-99.9,0,0,100,0.00,40.00,0,-999,0,0.00
2014-1-19,63.0,46.3,40.0,-99.9,-99.9,-99.9,0,0,100,0.00,40.00,0,-999,0,0.00
2014-1-20,70.0,50.1,34.0,-99.9,-99.9,-99.9,0,0,100,0.00,40.00,0,-999,0,0.00
2014-1-21,54.0,47.7,36.0,-99.9,-99.9,-99.9,0,0,100,0.00,40.00,0,-999,0,0.00
2014-1-22,45.0,40.1,29.0,-99.9,-99.9,-99.9,0,0,100,0.00,40.00,0,-999,0,0.00
2014-1-23,47.0,44.6,42.0,-99.9,-99.9,-99.9,0,0,100,0.00,40.00,0,-999,0,0.00
2014-1-24,32.0,29.4,25.0,-99.9,-99.9,-99.9,0,0,100,0.00,40.00,0,-999,0,0.00
2014-1-25,51.0,34.8,21.0,-99.9,-99.9,-99.9,0,0,100,0.00,40.00,0,-999,0,0.00
2014-1-26,69.0,55.8,40.0,-99.9,-99.9,-99.9,0,0,100,0.00,40.00,0,-999,0,0.00
2014-1-27,57.0,53.8,47.0,-99.9,-99.9,-99.9,0,0,100,0.00,40.00,0,-999,0,0.00
2014-1-28,43.0,36.8,31.0,-99.9,-99.9,-99.9,0,0,100,0.00,40.00,0,-999,0,0.00
2014-1-29,43.0,33.3,19.0,-99.9,-99.9,-99.9,0,0,100,0.00,40.00,0,-999,0,0.00
2014-1-30,58.0,39.5,25.0,-99.9,-99.9,-99.9,0,0,100,0.00,40.00,0,-999,0,0.00
2014-1-31,68.0,53.4,43.0,-99.9,-99.9,-99.9,0,0,100,0.00,40.00,0,-999,0,0.00
2014-2-1,73.0,59.6,50.0,-99.9,-99.9,-99.9,0,0,100,0.00,40.00,0,-999,0,0.00
2014-2-2,69.0,56.2,40.0,-99.9,-99.9,-99.9,0,0,100,0.00,40.00,0,-999,0,0.00
2014-2-3,47.0,41.5,39.0,-99.9,-99.9,-99.9,0,0,100,0.00,40.00,0,-999,0,0.00
2014-2-4,53.0,43.8,37.0,-99.9,-99.9,-99.9,0,0,100,0.00,40.00,0,-999,0,0.00
2014-2-5,47.0,42.9,39.0,-99.9,-99.9,-99.9,0,0,100,0.00,40.00,0,-999,0,0.00
2014-2-6,40.0,39.9,39.0,-99.9,-99.9,-99.9,0,0,100,0.00,40.00,0,-999,0,0.00
2014-2-7,45.0,40.5,38.0,-99.9,-99.9,-99.9,0,0,100,0.00,40.00,0,-999,0,0.00
2014-2-8,57.0,46.9,38.0,-99.9,-99.9,-99.9,0,0,100,0.00,40.00,0,-999,0,0.00
2014-2-9,64.0,57.8,52.0,-99.9,-99.9,-99.9,0,0,100,0.00,40.00,0,-999,0,0.00
2014-2-10,62.0,53.5,43.0,-99.9,-99.9,-99.9,0,0,100,0.00,40.00,0,-999,0,0.00
2014-2-11,43.0,40.0,35.0,-99.9,-99.9,-99.9,0,0,100,0.00,40.00,0,-999,0,0.00
2014-2-12,40.0,39.5,39.0,-99.9,-99.9,-99.9,0,0,100,0.00,40.00,0,-999,0,0.00
2014-2-13,56.0,50.4,41.0,-99.9,-99.9,-99.9,0,0,100,0.00,40.00,0,-999,0,0.00
2014-2-14,71.0,65.7,59.0,-99.9,-99.9,-99.9,0,0,100,0.00,40.00,0,-999,0,0.00
2014-2-15,66.0,54.5,47.0,-99.9,-99.9,-99.9,0,0,100,0.00,40.00,0,-999,0,0.00
2014-2-16,73.0,58.7,40.0,-99.9,-99.9,-99.9,0,0,100,0.00,40.00,0,-999,0,0.00
2014-2-17,79.0,68.8,62.0,-99.9,-99.9,-99.9,0,0,100,0.00,40.00,0,-999,0,0.00
2014-2-18,73.0,66.2,63.0,-99.9,-99.9,-99.9,0,0,100,0.00,40.00,0,-999,0,0.00
2014-2-19,80.0,68.1,64.0,-99.9,-99.9,-99.9,0,0,100,0.00,40.00,0,-999,0,0.00
2014-2-20,76.0,70.2,66.0,-99.9,-99.9,-99.9,0,0,100,0.00,40.00,0,-999,0,0.00
2014-2-21,68.0,56.2,44.0,-99.9,-99.9,-99.9,0,0,100,0.00,40.00,0,-999,0,0.00
2014-2-22,74.0,53.7,37.0,-99.9,-99.9,-99.9,0,0,100,0.00,40.00,0,-999,0,0.00
2014-2-23,69.0,63.2,58.0,-99.9,-99.9,-99.9,0,0,100,0.00,40.00,0,-999,0,0.00
2014-2-24,65.0,62.5,55.0,-99.9,-99.9,-99.9,0,0,100,0.00,40.00,0,-999,0,0.00
2014-2-25,64.0,59.6,55.0,-99.9,-99.9,-99.9,0,0,100,0.00,40.00,0,-999,0,0.00
2014-2-26,54.0,50.6,46.0,-99.9,-99.9,-99.9,0,0,100,0.00,40.00,0,-999,0,0.00
2014-2-27,57.0,43.7,36.0,-99.9,-99.9,-99.9,0,0,100,0.00,40.00,0,-999,0,0.00
2014-2-28,61.0,53.3,40.0,-99.9,-99.9,-99.9,0,0,100,0.00,40.00,0,-999,0,0.00
2014-3-1,73.0,65.8,59.0,-99.9,-99.9,-99.9,0,0,100,0.00,40.00,0,-999,0,0.00
2014-3-2,73.0,63.6,41.0,-99.9,-99.9,-99.9,0,0,100,0.00,40.00,0,-999,0,0.00
2014-3-3,41.0,38.1,33.0,-99.9,-99.9,-99.9,0,0,100,0.00,40.00,0,-999,0,0.00
2014-3-4,39.0,37.9,36.0,-99.9,-99.9,-99.9,0,0,100,0.00,40.00,0,-999,0,0.00
2014-3-5,54.0,45.1,38.0,-99.9,-99.9,-99.9,0,0,100,0.00,40.00,0,-999,0,0.00
2014-3-6,52.0,48.6,40.0,-99.9,-99.9,-99.9,0,0,100,0.00,40.00,0,-999,0,0.00
2014-3-7,59.0,46.5,33.0,-99.9,-99.9,-99.9,0,0,100,0.00,40.00,0,-999,0,0.00
2014-3-8,66.0,55.5,47.0,-99.9,-99.9,-99.9,0,0,100,0.00,40.00,0,-999,0,0.00
2014-3-9,64.0,58.4,55.0,-99.9,-99.9,-99.9,0,0,100,0.00,40.00,0,-999,0,0.00
2014-3-10,72.0,57.6,52.0,-99.9,-99.9,-99.9,0,0,100,0.00,40.00,0,-999,0,0.00
2014-3-11,71.0,61.7,57.0,-99.9,-99.9,-99.9,0,0,100,0.00,40.00,0,-999,0,0.00
2014-3-12,65.0,60.5,50.0,-99.9,-99.9,-99.9,0,0,100,0.00,40.00,0,-999,0,0.00
2014-3-13,67.0,55.3,41.0,-99.9,-99.9,-99.9,0,0,100,0.00,40.00,0,-999,0,0.00
2014-3-14,65.0,55.4,41.0,-99.9,-99.9,-99.9,0,0,100,0.00,40.00,0,-999,0,0.00
2014-3-15,74.0,61.1,58.0,-99.9,-99.9,-99.9,0,0,100,0.00,40.00,0,-999,0,0.00
2014-3-16,73.0,64.3,48.0,-99.9,-99.9,-99.9,0,0,100,0.00,40.00,0,-999,0,0.00
2014-3-17,49.0,45.3,43.0,-99.9,-99.9,-99.9,0,0,100,0.00,40.00,0,-999,0,0.00
2014-3-18,63.0,47.9,41.0,-99.9,-99.9,-99.9,0,0,100,0.00,40.00,0,-999,0,0.00
2014-3-19,75.0,71.3,62.0,-99.9,-99.9,-99.9,0,0,100,0.00,40.00,0,-999,0,0.00
2014-3-20,77.0,66.1,56.0,-99.9,-99.9,-99.9,0,0,100,0.00,40.00,0,-999,0,0.00
2014-3-21,74.0,60.7,47.0,-99.9,-99.9,-99.9,0,0,100,0.00,40.00,0,-999,0,0.00
2014-3-22,79.0,63.4,56.0,-99.9,-99.9,-99.9,0,0,100,0.00,40.00,0,-999,0,0.00
2014-3-23,73.0,62.1,51.0,-99.9,-99.9,-99.9,0,0,100,0.00,40.00,0,-999,0,0.00
2014-3-24,63.0,52.0,47.0,-99.9,-99.9,-99.9,0,0,100,0.00,40.00,0,-999,0,0.00
2014-3-25,61.0,50.4,38.0,-99.9,-99.9,-99.9,0,0,100,0.00,40.00,0,-999,0,0.00
2014-3-26,52.0,46.6,38.0,-99.9,-99.9,-99.9,0,0,100,0.00,40.00,0,-999,0,0.00
2014-3-27,67.0,59.5,45.0,-99.9,-99.9,-99.9,0,0,100,0.00,40.00,0,-999,0,0.00
2014-3-28,83.0,73.6,60.0,-99.9,-99.9,-99.9,0,0,100,0.00,40.00,0,-999,0,0.00
2014-3-29,79.0,64.5,58.0,-99.9,-99.9,-99.9,0,0,100,0.00,40.00,0,-999,0,0.00
2014-3-30,72.0,55.0,45.0,-99.9,-99.9,-99.9,0,0,100,0.00,40.00,0,-999,0,0.00
2014-3-31,75.0,63.7,43.0,-99.9,-99.9,-99.9,0,0,100,0.00,40.00,0,-999,0,0.00
2014-4-1,77.0,63.8,55.0,-99.9,-99.9,-99.9,0,0,100,0.00,40.00,0,-999,0,0.00
2014-4-2,80.0,72.9,68.0,-99.9,-99.9,-99.9,0,0,100,0.00,40.00,0,-999,0,0.00
2014-4-3,80.0,72.8,70.0,-99.9,-99.9,-99.9,0,0,100,0.00,40.00,0,-999,0,0.00
2014-4-4,76.0,69.3,60.0,-99.9,-99.9,-99.9,0,0,100,0.00,40.00,0,-999,0,0.00
2014-4-5,69.0,61.7,55.0,-99.9,-99.9,-99.9,0,0,100,0.00,40.00,0,-999,0,0.00
2014-4-6,68.0,60.2,50.0,-99.9,-99.9,-99.9,0,0,100,0.00,40.00,0,-999,0,0.00
2014-4-7,67.0,59.0,51.0,-99.9,-99.9,-99.9,0,0,100,0.00,40.00,0,-999,0,0.00
2014-4-8,70.0,57.3,48.0,-99.9,-99.9,-99.9,0,0,100,0.00,40.00,0,-999,0,0.00
2014-4-9,73.0,67.0,64.0,-99.9,-99.9,-99.9,0,0,100,0.00,40.00,0,-999,0,0.00
2014-4-10,77.0,66.1,47.0,-99.9,-99.9,-99.9,0,0,100,0.00,40.00,0,-999,0,0.00
2014-4-11,76.0,69.5,52.0,-99.9,-99.9,-99.9,0,0,100,0.00,40.00,0,-999,0,0.00
2014-4-12,80.0,73.0,68.0,-99.9,-99.9,-99.9,0,0,100,0.00,40.00,0,-999,0,0.00
2014-4-13,76.0,69.5,65.0,-99.9,-99.9,-99.9,0,0,100,0.00,40.00,0,-999,0,0.00
2014-4-14,81.0,64.4,46.0,-99.9,-99.9,-99.9,0,0,100,0.00,40.00,0,-999,0,0.00
2014-4-15,57.0,48.4,40.0,-99.9,-99.9,-99.9,0,0,100,0.00,40.00,0,-999,0,0.00
2014-4-16,63.0,51.8,37.0,-99.9,-99.9,-99.9,0,0,100,0.00,40.00,0,-999,0,0.00
2014-4-17,59.0,55.4,47.0,-99.9,-99.9,-99.9,0,0,100,0.00,40.00,0,-999,0,0.00
2014-4-18,72.0,57.8,51.0,-99.9,-99.9,-99.9,0,0,100,0.00,40.00,0,-999,0,0.00
2014-4-19,77.0,64.9,48.0,-99.9,-99.9,-99.9,0,0,100,0.00,40.00,0,-999,0,0.00
2014-4-20,83.0,70.2,54.0,-99.9,-99.9,-99.9,0,0,100,0.00,40.00,0,-999,0,0.00
2014-4-21,80.0,71.0,51.0,-99.9,-99.9,-99.9,0,0,100,0.00,40.00,0,-999,0,0.00
2014-4-22,80.0,66.7,62.0,-99.9,-99.9,-99.9,0,0,100,0.00,40.00,0,-999,0,0.00
2014-4-23,82.0,71.8,58.0,-99.9,-99.9,-99.9,0,0,100,0.00,40.00,0,-999,0,0.00
2014-4-24,78.0,69.7,58.0,-99.9,-99.9,-99.9,0,0,100,0.00,40.00,0,-999,0,0.00
2014-4-25,82.0,67.9,62.0,-99.9,-99.9,-99.9,0,0,100,0.00,40.00,0,-999,0,0.00
2014-4-26,83.0,73.8,59.0,-99.9,-99.9,-99.9,0,0,100,0.00,40.00,0,-999,0,0.00
2014-4-27,80.0,74.8,72.0,-99.9,-99.9,-99.9,0,0,100,0.00,40.00,0,-999,0,0.00
2014-4-28,81.0,74.3,70.0,-99.9,-99.9,-99.9,0,0,100,0.00,40.00,0,-999,0,0.00
2014-4-29,80.0,72.9,67.0,-99.9,-99.9,-99.9,0,0,100,0.00,40.00,0,-999,0,0.00
2014-4-30,71.0,62.7,47.0,-99.9,-99.9,-99.9,0,0,100,0.00,40.00,0,-999,0,0.00
2014-5-1,68.0,58.8,42.0,-99.9,-99.9,-99.9,0,0,100,0.00,40.00,0,-999,0,0.00
2014-5-2,74.0,68.0,54.0,-99.9,-99.9,-99.9,0,0,100,0.00,40.00,0,-999,0,0.00
2014-5-13,66.0,66.0,66.0,-99.9,-99.9,-99.9,0,0,100,0.00,40.00,0,-999,0,0.00
2014-5-14,61.0,54.8,51.0,-99.9,-99.9,-99.9,0,0,100,0.00,40.00,0,-999,0,0.00
2014-5-15,71.0,62.1,49.0,-99.9,-99.9,-99.9,0,0,100,0.00,40.00,0,-999,0,0.00
2014-5-16,81.0,70.8,49.0,-99.9,-99.9,-99.9,0,0,100,0.00,40.00,0,-999,0,0.00
2014-5-17,80.0,76.5,73.0,-99.9,-99.9,-99.9,0,0,100,0.00,40.00,0,-999,0,0.00
2014-5-18,80.0,79.2,78.0,-99.9,-99.9,-99.9,0,0,100,0.00,40.00,0,-999,0,0.00
2014-5-19,85.0,73.9,54.0,-99.9,-99.9,-99.9,0,0,100,0.00,40.00,0,-999,0,0.00
2014-5-20,82.0,59.5,40.0,-99.9,-99.9,-99.9,0,0,100,0.00,40.00,0,-999,0,0.00
2014-5-21,86.0,54.3,29.0,-99.9,-99.9,-99.9,0,0,100,0.00,40.00,0,-999,0,0.00
2014-5-22,82.0,54.3,36.0,-99.9,-99.9,-99.9,0,0,100,0.00,40.00,0,-999,0,0.00
2014-5-23,84.0,43.4,9.0,-99.9,-99.9,-99.9,0,0,100,0.00,40.00,0,-999,0,0.00
2014-5-24,83.0,57.5,40.0,-99.9,-99.9,-99.9,0,0,100,0.00,40.00,0,-999,0,0.00
2014-5-25,88.0,52.1,29.0,-99.9,-99.9,-99.9,0,0,100,0.00,40.00,0,-999,0,0.00
2014-5-26,84.0,52.6,15.0,-99.9,-99.9,-99.9,0,0,100,0.00,40.00,0,-999,0,0.00
2014-5-27,74.0,71.4,69.0,-99.9,-99.9,-99.9,0,0,100,0.00,40.00,0,-999,0,0.00
2014-5-28,76.0,69.1,65.0,-99.9,-99.9,-99.9,0,0,100,0.00,40.00,0,-999,0,0.00
2014-5-29,80.0,71.2,67.0,-99.9,-99.9,-99.9,0,0,100,0.00,40.00,0,-999,0,0.00
2014-5-30,83.0,70.7,50.0,-99.9,-99.9,-99.9,0,0,100,0.00,40.00,0,-999,0,0.00
2014-5-31,84.0,69.0,58.0,-99.9,-99.9,-99.9,0,0,100,0.00,40.00,0,-999,0,0.00
2014-6-1,79.0,68.5,54.0,-99.9,-99.9,-99.9,0,0,100,0.00,40.00,0,-999,0,0.00
2014-6-2,84.0,74.9,68.0,-99.9,-99.9,-99.9,0,0,100,0.00,40.00,0,-999,0,0.00
2014-6-3,85.0,76.8,68.0,-99.9,-99.9,-99.9,0,0,100,0.00,40.00,0,-999,0,0.00
2014-6-4,84.0,75.4,66.0,-99.9,-99.9,-99.9,0,0,100,0.00,40.00,0,-999,0,0.00
2014-6-5,84.0,74.4,64.0,-99.9,-99.9,-99.9,0,0,100,0.00,40.00,0,-999,0,0.00
2014-6-6,87.0,76.7,66.0,-99.9,-99.9,-99.9,0,0,100,0.00,40.00,0,-999,0,0.00
2014-6-7,92.0,75.3,62.0,-99.9,-99.9,-99.9,0,0,100,0.00,40.00,0,-999,0,0.00
2014-6-8,90.0,71.2,63.0,-99.9,-99.9,-99.9,0,0,100,0.00,40.00,0,-999,0,0.00
2014-6-9,89.0,72.2,64.0,-99.9,-99.9,-99.9,0,0,100,0.00,40.00,0,-999,0,0.00
2014-6-10,88.0,71.4,55.0,-99.9,-99.9,-99.9,0,0,100,0.00,40.00,0,-999,0,0.00
2014-6-11,89.0,59.2,28.0,-99.9,-99.9,-99.9,0,0,100,0.00,40.00,0,-999,0,0.00
2014-6-12,86.0,64.8,32.0,-99.9,-99.9,-99.9,0,0,100,0.00,40.00,0,-999,0,0.00
2014-6-13,79.0,65.5,46.0,-99.9,-99.9,-99.9,0,0,100,0.00,40.00,0,-999,0,0.00
2014-6-14,88.0,64.9,8.0,-99.9,-99.9,-99.9,0,0,100,0.00,40.00,0,-999,0,0.00
2014-6-15,89.0,64.0,13.0,-99.9,-99.9,-99.9,0,0,100,0.00,40.00,0,-999,0,0.00
2014-6-16,91.0,76.7,58.0,-99.9,-99.9,-99.9,0,0,100,0.00,40.00,0,-999,0,0.00
2014-6-17,91.0,72.0,57.0,-99.9,-99.9,-99.9,0,0,100,0.00,40.00,0,-999,0,0.00
2014-6-18,89.0,74.1,64.0,-99.9,-99.9,-99.9,0,0,100,0.00,40.00,0,-999,0,0.00
2014-6-19,93.0,75.8,65.0,-99.9,-99.9,-99.9,0,0,100,0.00,40.00,0,-999,0,0.00
2014-6-20,97.0,74.8,58.0,-99.9,-99.9,-99.9,0,0,100,0.00,40.00,0,-999,0,0.00
2014-6-21,91.0,74.9,64.0,-99.9,-99.9,-99.9,0,0,100,0.00,40.00,0,-999,0,0.00
2014-6-22,87.0,73.2,65.0,-99.9,-99.9,-99.9,0,0,100,0.00,40.00,0,-999,0,0.00
2014-6-23,92.0,79.3,73.0,-99.9,-99.9,-99.9,0,0,100,0.00,40.00,0,-999,0,0.00
2014-6-24,84.0,73.0,62.0,-99.9,-99.9,-99.9,0,0,100,0.00,40.00,0,-999,0,0.00
2014-6-25,79.0,72.8,70.0,-99.9,-99.9,-99.9,0,0,100,0.00,40.00,0,-999,0,0.00
2014-6-26,88.0,73.0,70.0,-99.9,-99.9,-99.9,0,0,100,0.00,40.00,0,-999,0,0.00
2014-6-27,71.0,70.3,69.0,-99.9,-99.9,-99.9,0,0,100,0.00,40.00,0,-999,0,0.00
2014-6-28,81.0,76.6,70.0,-99.9,-99.9,-99.9,0,0,100,0.00,40.00,0,-999,0,0.00
2014-6-29,88.0,80.4,76.0,-99.9,-99.9,-99.9,0,0,100,0.00,40.00,0,-999,0,0.00
2014-6-30,89.0,76.8,72.0,-99.9,-99.9,-99.9,0,0,100,0.00,40.00,0,-999,0,0.00
2014-7-1,90.0,80.1,70.0,-99.9,-99.9,-99.9,0,0,100,0.00,40.00,0,-999,0,0.00
2014-7-2,88.0,76.2,72.0,-99.9,-99.9,-99.9,0,0,100,0.00,40.00,0,-999,0,0.00
2014-7-3,91.0,68.3,54.0,-99.9,-99.9,-99.9,0,0,100,0.00,40.00,0,-999,0,0.00
2014-7-4,88.0,72.8,57.0,-99.9,-99.9,-99.9,0,0,100,0.00,40.00,0,-999,0,0.00
2014-7-5,96.0,73.7,63.0,-99.9,-99.9,-99.9,0,0,100,0.00,40.00,0,-999,0,0.00
2014-7-6,97.0,72.7,53.0,-99.9,-99.9,-99.9,0,0,100,0.00,40.00,0,-999,0,0.00
2014-7-7,94.0,70.7,49.0,-99.9,-99.9,-99.9,0,0,100,0.00,40.00,0,-999,0,0.00
2014-7-8,87.0,78.0,62.0,-99.9,-99.9,-99.9,0,0,100,0.00,40.00,0,-999,0,0.00
2014-7-9,98.0,86.6,76.0,-99.9,-99.9,-99.9,0,0,100,0.00,40.00,0,-999,0,0.00
2014-7-10,94.0,86.0,66.0,-99.9,0.0,200.0,0,0,100,0.00,40.00,0,0,0,0.00
2014-7-11,98.0,78.4,54.0,-99.9,0.0,200.0,0,0,100,0.00,40.00,0,0,0,0.00
2014-7-12,85.0,69.4,51.0,-99.9,0.0,200.0,0,0,100,0.00,40.00,0,0,0,0.00
2014-7-13,78.0,61.6,29.0,-99.9,0.0,200.0,0,0,100,0.00,40.00,0,0,0,0.00
2014-7-14,92.0,67.7,41.0,-99.9,0.0,200.0,0,0,100,0.00,40.00,0,0,0,0.00
2014-7-15,70.0,58.9,48.0,-99.9,0.0,200.0,0,0,100,0.00,40.00,0,0,0,0.00
2014-7-16,86.0,74.8,51.0,-99.9,0.0,200.0,0,0,100,0.00,40.00,0,0,0,0.00
2014-7-17,82.0,61.8,36.0,-99.9,0.0,200.0,0,0,100,0.00,40.00,0,0,0,0.00
2014-7-18,87.0,76.4,74.0,-99.9,0.0,200.0,0,0,100,0.00,40.00,0,0,0,0.00
2014-7-19,80.0,76.2,73.0,-99.9,0.0,200.0,0,0,100,0.00,40.00,0,0,0,0.00
2014-7-20,84.0,80.0,76.0,-99.9,0.0,200.0,0,0,100,0.00,40.00,0,0,0,0.00
2014-7-21,89.0,79.5,55.0,-99.9,0.0,200.0,0,0,100,0.00,40.00,0,0,0,0.00
2014-7-22,87.0,72.3,55.0,-99.9,0.0,200.0,0,0,100,0.00,40.00,0,0,0,0.00
2014-7-23,87.0,67.4,56.0,-99.9,0.0,200.0,0,0,100,0.00,40.00,0,0,0,0.00
2014-7-24,87.0,69.3,49.0,-99.9,0.0,200.0,0,0,100,0.00,40.00,0,0,0,0.00
2014-7-25,79.0,62.9,52.0,-99.9,0.0,200.0,0,0,100,0.00,40.00,0,0,0,0.00
2014-7-26,92.0,64.9,42.0,-99.9,0.0,200.0,0,0,100,0.00,40.00,0,0,0,0.00
2014-7-27,90.0,68.4,47.0,-99.9,0.0,200.0,0,0,100,0.00,40.00,0,0,0,0.00
2014-7-28,92.0,63.0,45.0,-99.9,0.0,200.0,0,0,100,0.00,40.00,0,0,0,0.00
2014-7-29,84.0,68.4,59.0,-99.9,0.0,200.0,0,0,100,0.00,40.00,0,0,0,0.00
2014-7-30,80.0,62.4,51.0,-99.9,0.0,200.0,0,0,100,0.00,40.00,0,0,0,0.00
2014-7-31,80.0,64.3,49.0,-99.9,0.0,200.0,0,0,100,0.00,40.00,0,0,0,0.00
2014-8-1,80.0,72.7,69.0,-99.9,0.0,200.0,0,0,100,0.00,40.00,0,0,0,0.00
2014-8-2,76.0,66.7,62.0,-99.9,0.0,200.0,0,0,100,0.00,40.00,0,0,0,0.00
2014-8-3,83.0,68.4,61.0,-99.9,0.0,200.0,0,0,100,0.00,40.00,0,0,0,0.00
2014-8-4,81.0,67.1,56.0,-99.9,0.0,200.0,0,0,100,0.00,40.00,0,0,0,0.00
2014-8-5,92.0,64.9,58.0,-99.9,0.0,200.0,0,0,100,0.00,40.00,0,0,0,0.00
2014-8-6,94.0,74.0,52.0,-99.9,0.0,200.0,0,0,100,0.00,40.00,0,0,0,0.00
2014-8-7,82.0,78.5,73.0,-99.9,0.0,200.0,0,0,100,0.00,40.00,0,0,0,0.00
2014-8-8,90.0,69.3,58.0,-99.9,0.0,200.0,0,0,100,0.00,40.00,0,0,0,0.00
2014-8-9,87.0,59.8,47.0,-99.9,0.0,200.0,0,0,100,0.00,40.00,0,0,0,0.00
2014-8-10,83.0,64.3,54.0,-99.9,0.0,200.0,0,0,100,0.00,40.00,0,0,0,0.00
2014-8-11,99.0,67.9,55.0,-99.9,0.0,200.0,0,0,100,0.00,40.00,0,0,0,0.00
2014-9-17,77.0,77.0,77.0,-99.9,0.0,200.0,0,0,100,0.00,40.00,0,0,0,0.00
2014-9-18,69.0,69.0,69.0,-99.9,0.0,200.0,0,0,100,0.00,40.00,0,0,0,0.00
2014-9-19,83.0,74.2,66.0,-99.9,0.0,200.0,0,0,100,0.00,40.00,0,0,0,0.00
2014-9-20,86.0,77.8,63.0,-99.9,0.0,200.0,0,0,100,0.00,40.00,0,0,0,0.00
2014-9-21,91.0,80.6,63.0,-99.9,0.0,200.0,0,0,100,0.00,40.00,0,0,0,0.00
2014-9-22,85.0,74.6,67.0,-99.9,0.0,200.0,0,0,100,0.00,40.00,0,0,0,0.00
2014-9-26,81.0,78.0,72.0,-99.9,0.0,200.0,0,0,100,0.00,40.00,0,0,0,0.00
2014-9-27,72.0,72.0,72.0,-99.9,0.0,200.0,0,0,100,0.00,40.00,0,0,0,0.00
2014-9-28,82.0,75.3,70.0,-99.9,0.0,200.0,0,0,100,0.00,40.00,0,0,0,0.00
2014-9-29,82.0,76.1,69.0,-99.9,0.0,200.0,0,0,100,0.00,40.00,0,0,0,0.00
2014-9-30,90.0,77.7,69.0,-99.9,0.0,200.0,0,0,100,0.00,40.00,0,0,0,0.00
2014-10-1,86.0,81.9,78.0,-99.9,0.0,200.0,0,0,100,0.00,40.00,0,0,0,0.00
2014-10-2,85.0,79.0,76.0,-99.9,0.0,200.0,0,0,100,0.00,40.00,0,0,0,0.00
2014-10-3,83.0,80.0,77.0,-99.9,0.0,200.0,0,0,100,0.00,40.00,0,0,0,0.00
2014-10-4,64.0,57.9,51.0,-99.9,0.0,200.0,0,0,100,0.00,40.00,0,0,0,0.00
2014-11-24,56.0,50.8,48.0,-99.9,0.0,200.0,0,0,100,0.00,40.00,0,0,0,0.00
2014-11-25,53.0,43.5,40.0,-99.9,0.0,200.0,0,0,100,0.00,40.00,0,0,0,0.00
2014-11-26,43.0,41.4,38.0,-99.9,0.0,200.0,0,0,100,0.00,40.00,0,0,0,0.00
2014-11-27,46.0,44.9,43.0,-99.9,0.0,200.0,0,0,100,0.00,40.00,0,0,0,0.00
2014-11-30,52.0,52.0,52.0,-99.9,0.0,200.0,0,0,100,0.00,40.00,0,0,0,0.00
2014-12-1,54.0,54.0,54.0,-99.9,0.0,200.0,0,0,100,0.00,40.00,0,0,0,0.00
2014-12-6,59.0,59.0,59.0,-99.9,0.0,200.0,0,0,100,0.00,40.00,0,0,0,0.00
2014-12-7,51.0,47.1,44.0,-99.9,0.0,200.0,0,0,100,0.00,40.00,0,0,0,0.00
2014-12-8,49.0,44.7,39.0,-99.9,0.0,200.0,0,0,100,0.00,40.00,0,0,0,0.00
2014-12-9,49.0,42.0,37.0,-99.9,0.0,200.0,0,0,100,0.00,40.00,0,0,0,0.00
2014-12-10,41.0,38.6,36.0,-99.9,0.0,200.0,0,0,100,0.00,40.00,0,0,0,0.00
2014-12-14,52.0,50.0,47.0,-99.9,0.0,200.0,0,0,100,0.00,40.00,0,0,0,0.00
2014-12-16,57.0,49.3,40.0,-99.9,0.0,200.0,0,0,100,0.00,40.00,0,0,0,0.00
2014-12-17,43.0,41.3,40.0,-99.9,0.0,200.0,0,0,100,0.00,40.00,0,0,0,0.00
2014-12-19,51.0,51.0,51.0,-99.9,0.0,200.0,0,0,100,0.00,40.00,0,0,0,0.00